Regional Weather Roundup
Issued by NWS

Home | Current Version | Previous Version | Text Only | Print | Product List | Glossary Off
Versions: 1 2 3 4 5 6 7 8 9 10 11 12 13 14 15 16 17 18 19 20 21 22 23 24 25 26 27 28 29 30 31 32 33 34 35 36 37 38 39 40 41 42 43 44 45 46 47 48 49 50

000
ASUS45 KSLC 050310
RWRUT

UTAH REGIONAL WEATHER ROUNDUP
NATIONAL WEATHER SERVICE SALT LAKE CITY UT
900 PM MDT SAT JUL 04 2015

UTZ001>011-023>025-050400-

NORTHERN UTAH

CITY           SKY/WX    TMP DP  RH WIND       PRES   REMARKS
BRIGHAM CITY   MOCLDY    85  52  31 S18G31    29.93R
HILL AFB       CLOUDY    80  55  41 S17G26    29.99R
LOGAN          CLEAR     86  51  29 S7        29.87R
OGDEN          CLOUDY    83  55  38 S14       29.95R
PROVO AIRPORT  MOCLDY    81  54  39 W3        29.97R
SALT LAKE CITY LGT RAIN  82  58  43 S9        29.92R
VERNAL         CLOUDY    82  44  26 W3        29.96R
WENDOVER       CLOUDY    82  45  26 NW22G31   29.92R
HEBER CITY     CLOUDY    79  45  29 S7        30.03R
WEST JORDAN    PTCLDY    81  50  34 NW7       29.97R

$$

UTZ012>022-026-027-050400-

SOUTHERN/CENTRAL UTAH

CITY           SKY/WX    TMP DP  RH WIND       PRES   REMARKS
BLANDING       CLOUDY    68  56  66 NW9       30.19R
BRYCE CANYON   LGT RAIN  61  53  75 NW8       30.24S
CEDAR CITY     CLOUDY    76  47  35 SW9       30.08R
DELTA          CLOUDY    80  48  32 SW8       29.98R
HANKSVILLE     CLOUDY    79  55  44 N16G22    29.90F
MILFORD        CLOUDY    81  49  32 S15       30.00R
MOAB/CYNLANDS  TSTM      80  55  42 SW18G29   29.88R
PRICE          MOCLDY    80  43  26 N3        30.02R
ST GEORGE      CLOUDY    90  46  22 W9        29.89S
KANAB          MOCLDY    79  52  38 W5        30.09R

$$

REGIONAL REPORTS     COLORADO/ARIZONA

CITY           SKY/WX    TMP DP  RH WIND       PRES   REMARKS
CRAIG, CO      CLOUDY    67  52  58 VRB5      30.09S
GRAND JUNCTION MOCLDY    84  48  28 E17       29.93R
RIFLE          CLOUDY    69  58  67 S14G21    30.10R
MONTROSE       CLOUDY    79  49  34 S8        30.06R
CORTEZ         CLOUDY    73  52  47 NW9       30.15R
PAGE, AZ       MOCLDY    87  49  26 W3        29.96R
GRAND CANYON   CLOUDY    68  56  65 SW3       30.19R
KINGMAN        CLOUDY    89  47  23 S5        29.94R
FLAGSTAFF      CLOUDY    60  58  92 SW3       30.24S

$$

REGIONAL REPORTS    NEVADA/IDAHO/WYOMING

CITY           SKY/WX    TMP DP  RH WIND       PRES   REMARKS
LAS VEGAS, NV  PTCLDY    99  48  17 E6        29.76R HX  95
ELY            LGT RAIN  72  49  44 NW7       30.14R
ELKO           CLOUDY    74  52  46 W14       30.05R
POCATELLO, ID  CLEAR     83  48  29 SW12      29.87R
BURLEY         CLOUDY    79  52  38 S15G22    29.87R
EVANSTON, WY   MOCLDY    69  50  50 S8        30.12S
ROCK SPRINGS   MOCLDY    74  44  34 SW18G24   30.07R
KEMMERER       MOCLDY   N/A N/A N/A W6        30.13R

$$


USA.gov is the U.S. government's official web portal to all federal, state and local government web resources and services.